Probability
0 0 0 0 0 0 0 0 0 0 0 0 0 0 0 0 0 0 0 0 0 0 0 0 0 0 0 0 0 0 0 0 0 0 0 0 0 0 0 0 0 0 0 0 0 0 0 0 0
0 0 0 0 0 0 0 0 0 0 0 0 0 0 0 0 0 0 0 0 0 0 0 0 0 0 0 0 0 0 0 0 0 0 0 0 0 0 0 0 0 0 0 0 0 0 0 0 0
0 0 0 0 0 0 0 0 0 0 0 0 0 0 0 0 0 0 0 0 0 0 0 0 0 0 0 0 0 0 0 0 0 0 0 0 0 0 0 0 0 0 0 0 0 0 0 0 0
0 0 0 0 0 0 0 0 0 0 0 0 0 0 0 0 0 0 0 0 0 0 0 0 0 0 0 0 0 0 0 0 0 0 0 0 0 0 0 0 0 0 0 0 0 0 0 0 0
0 0 0 0 0 0 0 0 0 0 0 0 0 0 0 0 0 0 0 0 0 0 0 0 0 0 0 0 0 0 0 0 0 0 0 0 0 0 0 0 0 0 0 0 0 0 0 0 0
0 0 0 0 0 0 0 0 0 0 0 0 0 0 0 0 0 0 0 0 0 0 0 0 0 0 0 0 0 0 0 0 0 0 0 0 0 0 0 0 0 0 0 0 0 0 0 0 0
0 0 0 0 0 0 0 0 0 0 0 0 0 0 0 0 0 0 0 0 0 0 0 0 0 0 0 0 0 0 0 0 0 0 0 0 0 0 0 0 0 0 0 0 0 0 0 0 0
0 0 0 0 0 0 0 0 0 0 0 0 0 0 0 0 0 0 0 0 0 0 0 0 0 0 0 0 0 0 0 0 0 0 0 0 0 0 0 0 0 0 0 0 0 0 0 0 0
0 0 0 0 0 0 0 0 0 0 0 0 0 0 0 0 0 0 0 0 0 0 0 0 0 0 0 0 0 0 0 0 0 0 0 0 0 0 0 0 0 0 0 0 0 0 0 0 0
0 0 0 0 0 0 0 0 0 0 0 0 0 0 0 0 0 0 0 0 0 0 0 0 0 0 0 0 0 0 0 0 0 0 0 0 0 0 0 0 0 0 0 0 0 0 0 0 0
0 0 0 0 0 0 0 0 0 0 0 0 0 0 0 0 0 0 0 0 0 0 0 0 0 0 0 0 0 0 0 0 0 0 0 0 0 0 0 0 0 0 0 0 0 0 0 0 0
0 0 0 0 0 0 0 0 0 0 0 0 0 0 0 0 0 0 0 0 0 0 0 0 0 0 0 0 0 0 0 0 0 0 0 0 0 0 0 0 0 0 0 0 0 0 0 0 0
0 0 0 0 0 0 0 0 0 0 0 0 0 0 0 0 0 0 0 0 0 0 0 0 0 0 0 0 0 0 0 0 0 0 0 0 0 0 0 0 0 0 0 0 0 0 0 0 0
0 0 0 0 0 0 0 0 0 0 0 0 0 0 0 0 0 0 0 0 0 0 0 0 0 0 0 0 0 0 0 0 0 0 0 0 0 0 0 0 0 0 0 0 0 0 0 0 0
0 0 0 0 0 0 0 0 0 0 0 0 0 0 0 0 0 0 0 0 0 0 0 0 0 0 0 0 0 0 0 0 0 0 0 0 0 0 0 0 0 0 0 0 0 0 0 0 0
0 0 0 0 0 0 0 0 0 0 0 0 0 0 0 0 0 0 0 0 0 0 0 0 0 0 0 0 0 0 0 0 0 0 0 0 0 0 0 0 0 0 0 0 0 0 0 0 0
0 0 0 0 0 0 0 0 0 0 0 0 0 0 0 0 0 0 0 0 0 0 0 0 0 0 0 0 0 0 0 0 0 0 0 0 0 0 0 0 0 0 0 0 0 0 0 0 0
0 0 0 0 0 0 0 0 0 0 0 0 0 0 0 0 0 0 0 0 0 0 0 0 0 0 0 0 0 0 0 0 0 0 0 0 0 0 0 0 0 0 0 0 0 0 0 0 0
0 0 0 0 0 0 0 0 0 0 0 0 0 0 0 0 0 0 0 0 0 0 0 0 0 0 0 0 0 0 0 0 0 0 0 0 0 0 0 0 0 0 0 0 0 0 0 0 0
0 0 0 0 0 0 0 0 0 0 0 0 0 0 0 0 0 0 0 0 0 0 0 0 0 0 0 0 0 0 0 0 0 0 0 0 0 0 0 0 0 0 0 0 0 0 0 0 0
0 0 0 0 0 0 0 0 0 0 0 0 0 0 0 0 0 0 0 0 0 0 0 0 0 0 0 0 0 0 0 0 0 0 0 0 0 0 0 0 0 0 0 0 0 0 0 0 0
0 0 0 0 0 0 0 0 0 0 0 0 0 0 0 0 0 0 0 0 0 0 0 0 0 0 0 0 0 0 0 0 0 0 0 0 0 0 0 0 0 0 0 0 0 0 0 0 0
0 0 0 0 0 0 0 0 0 0 0 0 0 0 0 0 0 0 0 0 0 0 0 0 0 0 0 0 0 0 0 0 0 0 0 0 0 0 0 0 0 0 0 0 0 0 0 0 0
0 0 0 0 0 0 0 0 0 0 0 0 0 0 0 0 0 0 0 0 0 0 0 0 0 0 0 0 0 0 0 0 0 0 0 0 0 0 0 0 0 0 0 0 0 0 0 0 0
0 0 0 0 0 0 0 0 0 0 0 0 0 0 0 0 0 0 0 0 0 0 0 0 0 0 0 0 0 0 0 0 0 0 0 0 0 0 0 0 0 0 0 0 0 0 0 0 0
0 0 0 0 0 0 0 0 0 0 0 0 0 0 0 0 0 0 0 0 0 0 0 0 0 0 0 0 0 0 0 0 0 0 0 0 0 0 0 0 0 0 0 0 0 0 0 0 0
0 0 0 0 0 0 0 0 0 0 0 0 0 0 0 0 0 0 0 0 0 0 0 0 0 0 0 0 0 0 0 0 0 0 0 0 0 0 0 0 0 0 0 0 0 0 0 0 0
0 0 0 0 0 0 0 0 0 0 0 0 0 0 0 0 0 0 0 0 0 0 0 0 0 0 0 0 0 0 0 0 0 0 0 0 0 0 0 0 0 0 0 0 0 0 0 0 0
0 0 0 0 0 0 0 0 0 0 0 0 0 0 0 0 0 0 0 0 0 0 0 0 0 0 0 0 0 0 0 0 0 0 0 0 0 0 0 0 0 0 0 0 0 0 0 0 0
0 0 0 0 0 0 0 0 0 0 0 0 0 0 0 0 0 0 0 0 0 0 0 0 0 0 0 0 0 0 0 0 0 0 0 0 0 0 0 0 0 0 0 0 0 0 0 0 0
Wind_Speed
6 4 3 5 7 6 1 2 1 1 1 1 2 5 7 6 4 3 2 5 8 7 6 9 12 14 14 13 13 12 13 15 15 16 17 17 17 17 17 17 17 18 18 18 18 18 19 19 18
3 3 5 6 6 2 4 3 2 2 4 4 3 4 4 2 2 6 5 6 8 8 7 9 12 13 13 13 12 12 13 14 15 16 16 16 16 16 16 16 16 17 17 18 18 18 18 18 17
2 5 5 5 4 4 3 3 4 2 3 3 3 3 3 3 4 6 5 9 8 7 7 9 12 13 14 13 12 13 13 14 15 16 16 16 16 16 16 16 16 16 17 17 17 17 17 17 17
4 5 6 5 2 4 4 3 4 5 3 2 4 4 2 1 5 5 9 9 9 8 7 9 13 14 14 13 13 13 14 14 15 15 15 15 15 15 15 15 15 15 16 16 16 16 16 16 15
4 4 4 1 3 3 3 2 5 4 3 2 4 4 2 4 5 10 10 9 10 8 6 8 12 13 13 13 13 13 13 14 15 15 15 15 15 15 15 14 14 15 15 15 15 15 15 15 14
5 4 3 2 4 4 2 3 5 3 3 3 5 5 1 2 8 10 9 8 8 8 7 7 11 12 11 11 12 12 13 13 14 14 14 14 14 14 14 14 14 14 14 14 14 14 14 14 13
4 3 4 4 2 3 2 4 5 5 4 6 6 6 2 4 6 9 9 8 7 7 7 6 7 8 10 11 11 11 11 12 13 13 13 13 12 13 12 12 13 13 13 13 14 13 13 13 12
4 4 3 3 3 4 2 3 3 6 4 3 5 8 7 7 9 10 10 9 8 7 6 6 6 6 6 7 10 11 11 11 12 13 12 11 11 11 11 9 11 12 12 12 13 13 12 12 12
3 3 4 5 5 4 2 2 1 2 6 3 1 3 4 14 13 13 10 9 9 8 7 6 6 6 6 6 8 9 10 11 11 9 11 9 6 6 6 8 10 11 11 11 11 11 11 10 10
3 4 7 4 4 3 2 3 5 5 3 2 1 2 9 14 15 15 14 14 12 11 9 7 7 7 6 5 5 4 4 5 5 5 5 4 4 4 5 8 9 9 8 9 10 10 9 7 4
4 5 4 3 2 2 2 2 4 8 5 8 9 11 15 15 15 14 13 13 12 11 10 9 8 7 6 5 4 3 3 3 4 5 5 4 4 3 4 3 4 4 5 4 5 5 3 3 2
3 4 3 3 1 1 3 3 3 7 8 6 10 17 20 20 18 16 15 12 11 11 11 10 9 8 6 6 4 4 3 3 3 4 5 4 3 3 2 2 2 2 2 2 2 2 3 3 2
4 3 3 2 2 2 2 4 4 7 4 2 9 15 19 20 17 12 10 10 10 12 12 11 10 9 8 7 5 4 4 4 4 4 4 5 4 3 3 2 2 2 1 1 1 1 2 2 2
4 3 3 3 2 1 2 3 3 7 2 6 12 16 17 18 16 11 10 11 11 12 12 11 11 10 9 7 6 5 4 4 4 4 4 5 4 4 3 3 2 1 1 1 1 0 1 1 1
2 1 4 4 2 2 1 5 7 4 6 8 11 13 14 13 12 13 14 13 12 12 11 11 11 10 10 8 7 5 5 5 4 4 5 5 4 4 4 3 2 2 2 2 1 0 0 1 2
3 3 5 5 3 3 5 10 9 4 8 9 10 10 12 12 12 11 11 10 10 10 11 11 10 11 11 8 7 5 5 5 4 4 4 6 5 5 4 3 3 3 2 2 1 1 1 2 2
4 6 7 4 4 4 6 8 8 5 8 9 10 11 12 11 11 10 10 10 10 11 12 12 11 12 11 9 7 6 5 5 5 4 4 5 6 6 5 4 3 3 3 2 2 1 1 2 2
8 6 6 8 4 6 7 8 8 4 7 9 9 10 11 14 17 12 10 10 10 10 11 12 12 11 10 7 5 4 5 5 4 5 5 6 6 7 5 4 4 4 3 2 2 2 1 1 2
6 7 7 6 4 6 9 11 11 6 6 8 9 10 13 16 12 8 9 10 10 10 11 12 13 11 9 7 6 6 6 5 5 5 6 7 7 7 6 4 4 4 4 4 4 2 2 1 0
4 6 6 2 1 4 5 10 10 7 8 10 12 14 15 13 8 9 10 11 13 14 14 14 14 13 12 9 7 4 4 4 4 5 6 7 7 7 6 6 5 5 4 4 4 3 2 1 1
6 6 5 3 1 0 2 9 11 9 7 7 8 10 10 13 14 13 12 14 14 16 16 14 15 14 13 11 6 4 3 3 3 4 5 6 7 8 7 7 6 5 5 4 5 5 4 2 1
8 4 3 3 2 3 4 7 10 9 10 11 12 10 12 13 13 12 12 13 16 17 14 14 15 14 13 13 10 10 9 8 7 5 5 5 6 7 7 6 6 5 4 4 4 4 3 3 2
4 5 5 3 1 2 4 6 10 5 12 14 14 14 15 14 14 14 15 15 14 13 13 13 13 14 14 14 14 13 10 7 5 5 6 5 4 5 5 6 5 5 4 4 4 4 4 3 3
7 7 6 4 2 7 9 7 11 9 12 9 11 14 15 13 13 13 11 9 9 9 10 11 13 14 14 15 15 15 13 10 8 7 7 5 3 3 4 5 5 5 4 4 4 4 4 3 3
7 8 4 4 6 9 5 8 13 9 9 11 13 14 13 12 11 11 10 11 11 11 12 12 14 15 14 15 15 15 14 13 12 10 9 7 5 3 4 5 5 4 4 4 4 4 4 3 4
10 9 8 8 7 4 4 11 11 8 6 6 7 7 7 8 9 10 11 11 10 11 11 12 13 14 14 15 15 13 13 10 8 9 8 8 6 5 5 6 5 5 5 5 5 5 4 4 4
11 9 4 4 1 3 7 9 11 6 7 8 8 8 10 10 9 9 7 7 8 9 9 10 12 12 12 13 12 11 11 10 9 8 8 6 6 6 7 7 7 6 6 6 6 5 5 5 5
9 10 6 5 6 6 6 7 7 6 9 10 9 11 11 7 7 6 6 6 5 5 5 5 7 9 9 10 9 8 9 9 9 9 10 9 8 8 9 8 8 7 7 7 7 6 5 6 5
9 9 7 7 5 6 5 9 9 10 10 10 11 9 7 6 6 6 5 4 4 4 5 5 5 6 6 8 8 8 8 9 10 9 10 10 9 9 9 9 8 8 7 6 7 6 6 7 6
9 11 11 10 8 6 4 10 5 6 5 5 6 5 4 5 5 5 5 5 5 5 5 5 5 5 5 6 7 8 9 9 10 10 10 10 11 9 9 9 9 8 7 7 7 7 6 6 6
Wind_Direction
350 11 43 51 52 50 337 268 228 133 93 54 112 132 144 142 160 169 120 134 129 128 126 123 120 117 114 110 106 103 102 101 100 96 93 91 90 89 87 87 86 85 84 82 82 81 82 80 77
356 18 46 56 79 58 280 255 219 185 152 123 73 85 97 102 89 118 131 140 129 125 121 123 122 121 118 114 109 107 105 104 102 99 96 93 92 91 89 88 88 87 85 83 83 83 82 81 79
35 49 71 71 107 177 235 226 194 113 133 123 90 68 104 145 141 148 151 137 121 116 119 127 126 125 122 117 112 109 107 106 104 101 99 95 94 93 91 89 87 87 85 84 83 83 82 81 80
52 43 54 75 199 218 223 230 164 128 118 91 115 94 71 30 163 150 135 129 121 118 122 131 130 129 125 122 117 113 109 108 106 103 101 98 96 95 92 90 88 86 84 84 84 83 82 81 81
56 69 62 37 262 260 244 212 154 151 152 120 118 116 68 3 111 127 131 130 131 126 125 131 130 130 128 125 121 116 112 109 107 106 103 102 100 98 95 93 91 89 87 85 85 84 84 83 82
55 67 102 226 264 284 262 164 145 143 137 138 127 115 83 109 133 136 132 129 131 130 126 128 129 129 127 124 120 118 115 112 110 108 106 105 103 101 99 97 95 93 90 88 87 86 85 84 83
106 113 175 200 243 281 241 154 158 154 161 185 155 121 133 159 148 135 128 126 125 122 121 121 125 125 124 120 117 115 112 112 110 108 105 101 100 100 98 97 98 95 93 89 86 85 84 84 83
120 118 164 198 204 250 226 158 172 157 172 144 142 148 176 174 143 131 130 134 134 128 126 125 122 120 118 117 117 114 110 108 107 104 99 95 94 94 91 91 97 97 94 90 86 83 82 81 82
97 111 200 206 197 235 197 157 135 128 121 138 194 184 181 140 142 141 142 147 152 150 145 140 133 128 123 121 122 116 112 111 109 106 104 95 86 83 85 92 94 96 94 91 87 83 80 75 73
120 180 216 211 194 209 202 189 169 128 135 171 115 78 129 145 156 159 162 165 169 169 166 158 150 144 134 127 119 112 110 111 107 108 105 98 94 89 89 87 87 85 82 83 82 77 70 66 55
154 198 220 239 213 205 202 217 171 147 194 206 188 166 154 163 168 172 172 173 176 174 172 169 162 155 144 135 133 121 117 116 116 120 118 110 98 92 84 80 74 71 67 61 62 59 52 54 53
168 230 229 246 236 188 204 187 192 193 216 217 181 163 164 173 179 181 179 177 174 177 180 175 169 164 155 148 146 142 140 138 140 142 137 127 119 115 113 104 99 83 72 72 59 54 46 42 35
200 240 251 266 290 249 194 205 216 237 260 128 139 160 173 180 186 185 180 174 173 181 183 181 176 173 166 161 161 160 160 160 158 154 154 149 145 147 143 136 127 117 102 93 77 53 34 19 3
205 226 277 287 285 266 206 259 214 248 155 141 155 174 184 186 185 179 177 180 183 185 185 182 181 178 174 175 175 172 170 165 161 166 171 166 158 158 158 158 160 162 157 148 139 110 8 338 329
142 202 287 265 235 233 112 277 233 226 145 165 179 185 189 192 188 190 188 186 186 187 183 184 185 180 181 183 183 177 175 169 173 177 177 176 171 168 166 168 180 188 176 166 158 215 331 309 311
126 178 242 246 194 202 161 248 256 178 164 186 193 193 196 199 200 200 193 189 185 182 182 185 185 185 188 187 186 182 180 178 181 178 178 183 181 176 171 179 193 185 172 172 182 209 282 294 301
174 207 220 244 204 178 184 238 264 171 182 198 200 200 202 206 211 206 197 193 188 186 183 184 185 188 191 188 186 184 182 187 184 179 181 185 184 181 180 190 193 178 177 184 189 203 218 282 296
187 195 202 212 211 184 209 239 263 213 202 211 207 207 209 212 216 204 197 194 190 189 187 188 189 191 187 182 176 179 186 192 186 186 189 185 186 185 185 191 191 179 178 189 195 208 209 250 288
168 178 203 215 196 188 223 238 249 233 219 229 221 214 218 224 221 202 197 194 191 192 192 192 192 191 183 180 183 187 197 195 193 193 189 188 187 186 187 189 187 182 191 200 191 183 206 255 280
181 196 208 233 158 187 244 255 254 231 219 219 216 217 220 225 220 211 201 197 199 199 199 197 197 193 190 192 186 180 173 184 192 189 191 192 190 188 190 191 190 188 191 192 186 173 172 206 144
206 201 190 187 58 137 292 278 254 247 230 235 229 224 223 220 220 214 205 205 204 205 203 201 199 196 194 188 174 154 148 150 175 190 194 198 196 192 191 194 191 190 190 196 194 183 182 193 174
212 188 165 125 129 240 200 258 257 234 238 234 229 222 224 223 221 216 208 207 209 210 204 202 198 196 193 187 185 183 190 196 194 183 184 188 193 193 191 188 186 184 183 188 189 181 178 173 182
158 135 130 117 139 276 233 241 267 225 233 236 229 224 226 224 218 216 212 211 210 206 202 201 198 197 193 191 193 194 199 197 174 165 173 179 181 186 183 180 175 173 172 174 165 162 164 171 172
118 87 70 72 100 247 217 211 263 222 218 224 226 224 225 223 219 219 215 207 206 199 197 196 196 199 195 195 196 198 197 187 174 174 175 172 169 171 171 162 162 162 160 162 159 151 147 151 145
146 133 143 177 205 242 177 208 248 240 222 215 218 221 222 219 214 213 207 202 201 195 196 195 197 201 197 198 200 200 197 191 188 182 178 171 169 171 172 159 153 149 148 143 136 130 129 135 131
178 167 173 184 206 249 191 230 250 246 249 252 256 250 240 226 216 214 210 204 201 196 192 193 198 201 197 200 201 198 195 193 190 180 172 172 169 164 154 143 135 128 127 124 120 113 111 108 108
164 194 169 126 121 236 239 262 292 257 261 255 253 250 241 229 217 216 209 199 195 191 191 193 196 199 199 199 196 192 189 184 175 165 158 151 145 140 137 132 126 121 118 117 115 109 107 103 97
164 153 146 169 185 235 263 251 244 240 232 238 237 237 240 227 212 206 197 190 186 182 177 182 192 196 194 193 189 183 178 171 161 154 150 146 142 137 135 131 127 120 115 114 112 110 109 104 97
153 165 167 170 194 191 242 259 224 218 217 224 233 235 234 220 207 196 185 174 164 158 161 170 178 180 181 180 172 164 161 154 150 150 148 145 141 142 140 136 131 126 121 120 117 113 114 110 103
166 173 166 180 206 201 222 264 258 235 257 270 277 276 246 215 195 180 174 168 166 166 164 165 167 169 170 162 155 153 148 146 146 144 143 142 139 138 136 133 129 125 123 123 123 121 119 118 114